This is the latest recevied weather packets stored in our database for station/object W0AKY-13. If no packets are shown the sender has not sent any weather packets the latest 10 day(s).
| Time | Temp. | Humidity | Pressure | Rain* | Wind** | Luminosity | Snow |
|---|---|---|---|---|---|---|---|
| 1788561047 | 37.22° C | 52% | 1013 hPa | 0 mm | - | 184 W/m² | - |
| 1788560743 | 37.22° C | 53% | 1013.2 hPa | 0 mm | - | 196 W/m² | - |
| 1788560438 | 37.22° C | 54% | 1013.2 hPa | 0 mm | - | 208 W/m² | - |
| 1788560132 | 37.22° C | 52% | 1013.4 hPa | 0 mm | - | 219 W/m² | - |
| 1788559827 | 37.22° C | 53% | 1013.2 hPa | 0 mm | - | 239 W/m² | - |
| 1788559526 | 37.22° C | 53% | 1013.1 hPa | 0 mm | - | 260 W/m² | - |
| 1788559223 | 37.22° C | 56% | 1013.2 hPa | 0 mm | - | 280 W/m² | - |
| 1788558922 | 36.67° C | 54% | 1013.3 hPa | 0 mm | - | 209 W/m² | - |
| 1788558618 | 37.22° C | 55% | 1013.4 hPa | 0 mm | - | 81 W/m² | - |
| 1788558313 | 37.78° C | 52% | 1013.3 hPa | 0 mm | - | 290 W/m² | - |
| 1788558009 | 37.78° C | 52% | 1013.1 hPa | 0 mm | - | 227 W/m² | - |
| 1788557707 | 37.78° C | 52% | 1013 hPa | 0 mm | - | 308 W/m² | - |
| 1788557404 | 37.78° C | 54% | 1013.2 hPa | 0 mm | - | 319 W/m² | - |
| 1788557102 | 37.78° C | 52% | 1013.1 hPa | 0 mm | - | 329 W/m² | - |
| 1788556798 | 38.33° C | 50% | 1013.1 hPa | 0 mm | - | 337 W/m² | - |
| 1788556492 | 37.78° C | 51% | 1013.2 hPa | 0 mm | - | 350 W/m² | - |
| 1788556188 | 37.78° C | 52% | 1013 hPa | 0 mm | - | 363 W/m² | - |
| 1788555887 | 37.78° C | 50% | 1013.2 hPa | 0 mm | - | 372 W/m² | - |
| 1788555583 | 37.78° C | 50% | 1013.1 hPa | 0 mm | - | 384 W/m² | - |
| 1788555278 | 37.78° C | 53% | 1013.4 hPa | 0 mm | - | 393 W/m² | - |
| 1788554976 | 37.78° C | 52% | 1013.5 hPa | 0 mm | - | 401 W/m² | - |
| 1788554671 | 37.78° C | 52% | 1013.5 hPa | 0 mm | - | 412 W/m² | - |
| 1788554367 | 37.78° C | 54% | 1013.3 hPa | 0 mm | - | 409 W/m² | - |
| 1788554063 | 37.78° C | 53% | 1013.3 hPa | 0 mm | - | 431 W/m² | - |
| 1788553759 | 37.78° C | 54% | 1013.4 hPa | 0 mm | - | 435 W/m² | - |
* Rain latest hour (hover to see other rain measurements)
** Current wind speed in m/s (hover to see current wind gust speed)